User: anonymous   Login
Location: Vancouver
(49.2500°N, 123.1330°W)
Time: 06:55:42
(UTC-07:00)
Language:

ERS-2 - Orbit

View from above orbital plane
View from above orbital plane
View from above satellite
View from above satellite

Ground track
Ground track

The orbit data is extracted from the following two-line orbital elements,

1 23560U 95021A   14304.67368867  .00008373  00000-0  49498-3 0  1503
2 23560 098.5499 161.0482 0003511 327.1270 073.6822 15.11776705 29870
Epoch (UTC): 31 October 2014 16:10:06
Eccentricity: 0.0003511
inclination: 98.5499°
perigee height: 528 km
apogee height: 533 km
right ascension of ascending node: 161.0482°
argument of perigee: 327.1270°
revolutions per day: 15.11776705
mean anomaly at epoch: 73.6822°
orbit number at epoch: 2987

The dashed part of the orbit path shows where the satellite is in the earth's shadow,  

DLR